Location: Auttagershofen
(48.1940°N, 10.0237°E)
Time: 20:28:03
(UTC+00:00)

NOSS 2-2 (C) - Pass Details

Date: 18 January 2026
Orbit: 379 x 1692 km, 63.3° (Epoch: 15 February)

Event Time Altitude Azimuth Distance (km) Brightness Sun altitude
Rises 06:20:03 0° 226° (SW) 2,521 6.5 -7.3°
Reaches altitude 10° 06:22:19 10° 229° (SW) 1,535 5.3 -6.9°
Maximum altitude 06:25:33 65° 312° (NW) 438 2.6 -6.4°
Drops below altitude 10° 06:28:31 10° 36° (NE) 1,404 5.6 -6.0°
Sets 06:30:31 0° 40° (NE) 2,276 6.7 -5.7°
